WetterOnline ( http://www.wetteronline.de )

Wetter aktuell Kellmünz

Aktuelles Wetter: Leutkirch-Herlazhofen (671m)

6-stündlich | Neueste Meldungen
Ortszeit Temperatur Wetter
Di, 17.07. 8:00 15.9° C wolkenlos
Di, 17.07. 2:00 11.7° C wolkenlos
Mo, 16.07. 20:00 21.1° C leicht bewölkt
Mo, 16.07. 14:00 23.2° C leicht bewölkt
Mo, 16.07. 8:00 15.4° C bedeckt
Mo, 16.07. 2:00 14.8° C Sprühregen
So, 15.07. 20:00 20.4° C bedeckt
So, 15.07. 14:00 23.6° C leicht bewölkt
Ortszeit Temperatur Wetter
Di, 17.07. 8:00 15.9° C wolkenlos
Di, 17.07. 7:50 15.9° C wolkenlos
Di, 17.07. 7:40 15.7° C wolkenlos
Di, 17.07. 7:30 14.4° C fast wolkenlos
Di, 17.07. 7:20 14.4° C fast wolkenlos
Di, 17.07. 7:10 13.6° C fast wolkenlos
Di, 17.07. 7:00 13.4° C fast wolkenlos
Di, 17.07. 6:30 11.2° C leicht bewölkt
Di, 17.07. 6:00 10.9° C wolkenlos
Di, 17.07. 5:30 10.7° C leicht bewölkt
Di, 17.07. 5:00 10.4° C wolkenlos
Ortszeit Relative Feuchte Sichtweite
Di, 17.07. 8:00 87% 28 km
Di, 17.07. 2:00 97% 21 km
Mo, 16.07. 20:00 60% 55 km
Mo, 16.07. 14:00 44% 20 km
Mo, 16.07. 8:00 95% 26 km
Mo, 16.07. 2:00 87% 55 km
So, 15.07. 20:00 59% 70 km
So, 15.07. 14:00 51% 45 km
Ortszeit Relative Feuchte Sichtweite
Di, 17.07. 8:00 87% 28 km
Di, 17.07. 7:50 87% -
Di, 17.07. 7:40 86% -
Di, 17.07. 7:30 86% 21 km
Di, 17.07. 7:20 86% -
Di, 17.07. 7:10 89% -
Di, 17.07. 7:00 87% 23 km
Di, 17.07. 6:30 95% 18 km
Di, 17.07. 6:00 97% 21 km
Di, 17.07. 5:30 97% 19 km
Di, 17.07. 5:00 99% 14 km
Ortszeit Niederschlagsmenge Niederschlagsart
Di, 17.07. 8:00 0.0 l/m2 in 12 Std. -
Di, 17.07. 2:00 0.0 l/m2 in 6 Std. -
Mo, 16.07. 20:00 0.0 l/m2 in 12 Std. -
Mo, 16.07. 14:00 0.0 l/m2 in 6 Std. -
Mo, 16.07. 8:00 3 l/m2 in 12 Std. Regen
Mo, 16.07. 2:00 0.1 l/m2 in 6 Std. Regen
So, 15.07. 20:00 0.1 l/m2 in 12 Std. -
So, 15.07. 14:00 0.1 l/m2 in 6 Std. Regen
Ortszeit Niederschlagsmenge Niederschlagsart
Di, 17.07. 8:00 0.0 l/m2 in 1 Std. -
Di, 17.07. 7:50 keine Meldung -
Di, 17.07. 7:40 keine Meldung -
Di, 17.07. 7:30 0.0 l/m2 in 1 Std. -
Di, 17.07. 7:20 keine Meldung -
Di, 17.07. 7:10 keine Meldung -
Di, 17.07. 7:00 0.0 l/m2 in 1 Std. -
Di, 17.07. 6:30 0.0 l/m2 in 1 Std. -
Di, 17.07. 6:00 0.0 l/m2 in 1 Std. -
Di, 17.07. 5:30 0.0 l/m2 in 1 Std. -
Di, 17.07. 5:00 0.0 l/m2 in 1 Std. -
Ortszeit Stärke Spitze Richtung
km/h Bft. km/h Grad Sektor
Di, 17.07. 8:00 7 2 11 160° S
Di, 17.07. 2:00 4 1 14 200° S
Mo, 16.07. 20:00 9 2 31 50° NO
Mo, 16.07. 14:00 13 3 22 250° W
Mo, 16.07. 8:00 6 1 11 120° SO
Mo, 16.07. 2:00 7 2 40 170° S
So, 15.07. 20:00 9 2 35 70° O
So, 15.07. 14:00 6 1 19 270° W
Ortszeit Stärke Spitze Richtung
km/h Bft. km/h Grad Sektor
Di, 17.07. 8:00 7 2 11 160° S
Di, 17.07. 7:50 7 2 - 160° S
Di, 17.07. 7:40 4 1 - 160° S
Di, 17.07. 7:30 4 1 7 120° SO
Di, 17.07. 7:20 4 1 - 120° SO
Di, 17.07. 7:10 6 1 - 190° S
Di, 17.07. 7:00 0 0 11 - -
Di, 17.07. 6:30 4 1 11 200° S
Di, 17.07. 6:00 6 1 9 130° SO
Di, 17.07. 5:30 4 1 7 190° S
Di, 17.07. 5:00 2 1 7 170° S
Ortszeit Untergrenze Bedeckung Gattung
total tief tief mittel hoch
Di, 17.07. 8:00 - 0/8 0/8 - - -
Di, 17.07. 2:00 - 0/8 0/8 - - -
Mo, 16.07. 20:00 3600 m 2/8 2/8 - - -
Mo, 16.07. 14:00 1500 m 2/8 2/8 - - -
Mo, 16.07. 8:00 1800 m 8/8 8/8 - - -
Mo, 16.07. 2:00 2700 m 8/8 6/8 - - -
So, 15.07. 20:00 3300 m 8/8 8/8 - - -
So, 15.07. 14:00 3600 m 4/8 2/8 - - -
Ortszeit Bedeckungsgrad in Achtel und Wolkenuntergrenze
Di, 17.07. 8:00 keine Wolken
Di, 17.07. 7:50 keine Wolken
Di, 17.07. 7:40 keine Wolken
Di, 17.07. 7:30 1(9000m)
Di, 17.07. 7:20 1(9000m)
Di, 17.07. 7:10 1(9000m)
Di, 17.07. 7:00 2(9000m)
Di, 17.07. 6:30 5(9000m)
Di, 17.07. 6:00 keine Wolken
Di, 17.07. 5:30 3(3000m)
Di, 17.07. 5:00 keine Wolken
Ortszeit Luftdruck NN (hPa) Tendenz (hPa in 3 Std.)
Di, 17.07. 8:00 1016 + 0,9
Di, 17.07. 2:00 1016 + 1,2
Mo, 16.07. 20:00 1010 - 0,2
Mo, 16.07. 14:00 1011 - 1,2
Mo, 16.07. 8:00 1016 + 0,3
Mo, 16.07. 2:00 1016 0,0
So, 15.07. 20:00 1014 + 0,5
So, 15.07. 14:00 1014 - 1,2
Ortszeit Luftdruck NN (hPa) Tendenz (hPa in 3 Std.)
Di, 17.07. 8:00 1016 + 0,9
Di, 17.07. 7:50 1016 keine Meldung
Di, 17.07. 7:40 1016 keine Meldung
Di, 17.07. 7:30 1016 + 1,1
Di, 17.07. 7:20 1016 keine Meldung
Di, 17.07. 7:10 1016 keine Meldung
Di, 17.07. 7:00 1016 + 1,0
Di, 17.07. 6:30 1017 + 0,7
Di, 17.07. 6:00 1016 + 0,6
Di, 17.07. 5:30 1016 + 0,3
Di, 17.07. 5:00 1016 + 0,4
Ortszeit Schneehöhe (cm)
Di, 17.07. 8:00 -
Di, 17.07. 2:00 -
Mo, 16.07. 20:00 -
Mo, 16.07. 14:00 -
Mo, 16.07. 8:00 -
Mo, 16.07. 2:00 -
So, 15.07. 20:00 -
So, 15.07. 14:00 -
Ortszeit Schneehöhe (cm)
Di, 17.07. 8:00 -
Di, 17.07. 7:50 -
Di, 17.07. 7:40 -
Di, 17.07. 7:30 -
Di, 17.07. 7:20 -
Di, 17.07. 7:10 -
Di, 17.07. 7:00 -
Di, 17.07. 6:30 -
Di, 17.07. 6:00 -
Di, 17.07. 5:30 -
Di, 17.07. 5:00 -
Link zu dieser Seite / Seite empfehlen

Das Wetter in ...